sat.trackr.live / text

‹ back to catalog

STARLINK-11529 [DTC]

NORAD 62599 · 2025-008N

PAYLOAD ACTIVE UNKNOWN

§ Identity

Operator
Country
US
Launch date
2025-01-13
Launch site
AFETR
Launch vehicle
Mass (kg)
RCS (m²)

Purposes: comms

External: N2YO · Heavens-Above · Gunter

§ Orbital elements

Epoch: 2026-05-25T01:09:26.307360Z

Period
91.67 min
Inclination
43.0016°
Eccentricity
0.0002732
Mean motion
15.70894005 rev/d
Perigee alt
354.5 km
Apogee alt
358.2 km
Semi-major
6,734.5 km
B*
1.0411e-3
RAAN
25.8796°
Arg perigee
264.1794°
Mean anomaly
95.8762°
Rev number
7,930

§ Raw data

STARLINK-11529 [DTC]1 62599U 25008N   26145.04822115  .00135660  00000+0  10411-2 0  99962 62599  43.0016  25.8796 0002732 264.1794  95.8762 15.70894005 79306

JSON: /api/v1/satellites/62599 · /tle

For live sub-satellite position, see the globe view (requires WebGL).

§ Visibility from observer

Set your observer location to see the next 7 days of passes ≥ 10°. The values pass through the URL so the page stays shareable.

No JS? Fill the form by hand. The geolocation button needs JavaScript.